�������C�����ː����j�^�v���󋵏��
Date,Time,Cs137(Bq/L),Cs134(Bq/L),�S��(Bq/L)
2016/11/29,00:00,0.81,0.069,ND
2016/11/29,00:10,0.80,0.071,ND
2016/11/29,00:20,0.79,0.070,ND
2016/11/29,00:30,0.65,0.081,ND
2016/11/29,00:40,0.65,0.087,ND
2016/11/29,00:50,0.62,0.091,ND
2016/11/29,01:00,0.61,0.094,ND
2016/11/29,01:10,0.60,0.087,ND
2016/11/29,01:20,0.63,0.087,10
2016/11/29,01:30,0.61,0.091,12
2016/11/29,01:40,0.62,0.083,13
2016/11/29,01:50,0.61,0.082,12
2016/11/29,02:00,0.64,0.072,13
2016/11/29,02:10,0.66,0.068,12
2016/11/29,02:20,0.64,0.069,12
2016/11/29,02:30,0.64,0.068,ND
2016/11/29,02:40,0.65,0.057,ND
2016/11/29,02:50,0.80,0.026,ND
2016/11/29,03:00,0.79,0.030,ND
2016/11/29,03:10,0.77,0.041,ND
2016/11/29,03:20,0.77,0.040,ND
2016/11/29,03:30,0.77,0.035,ND
2016/11/29,03:40,0.76,0.041,ND
2016/11/29,03:50,0.78,0.047,ND
2016/11/29,04:00,0.79,0.045,ND
2016/11/29,04:10,0.80,0.054,ND
2016/11/29,04:20,0.83,0.055,9.6
2016/11/29,04:30,0.85,0.070,11
2016/11/29,04:40,0.89,0.069,10
2016/11/29,04:50,0.90,0.069,ND
2016/11/29,05:00,0.93,0.069,ND
2016/11/29,05:10,0.93,0.072,ND
2016/11/29,05:20,0.79,0.098,ND
2016/11/29,05:30,0.81,0.11,ND
2016/11/29,05:40,0.84,0.11,ND
2016/11/29,05:50,0.86,0.12,ND
2016/11/29,06:00,0.86,0.12,ND
2016/11/29,06:10,0.89,0.12,ND
2016/11/29,06:20,0.90,0.12,ND
2016/11/29,06:30,0.88,0.12,ND
2016/11/29,06:40,0.91,0.11,ND
2016/11/29,06:50,0.89,0.11,ND
2016/11/29,07:00,0.88,0.11,ND
2016/11/29,07:10,0.86,0.10,ND
2016/11/29,07:20,0.85,0.11,ND
2016/11/29,07:30,0.85,0.10,ND
2016/11/29,07:40,0.83,0.12,ND
2016/11/29,07:50,0.83,0.12,ND
2016/11/29,08:00,0.87,0.12,ND
2016/11/29,08:10,0.88,0.12,ND
2016/11/29,08:20,0.90,0.12,ND
2016/11/29,08:30,0.90,0.12,ND
2016/11/29,08:40,0.90,0.12,ND
2016/11/29,08:50,0.91,0.11,ND
2016/11/29,09:00,0.89,0.11,ND
2016/11/29,09:10,0.87,0.11,ND
2016/11/29,09:20,0.99,0.092,ND
2016/11/29,09:30,1.0,0.080,ND
2016/11/29,09:40,1.0,0.086,ND
2016/11/29,09:50,1.0,0.086,ND
2016/11/29,10:00,1.0,0.087,ND
2016/11/29,10:10,1.1,0.086,ND
2016/11/29,10:20,1.1,0.084,ND
2016/11/29,10:30,1.1,0.095,ND
2016/11/29,10:40,1.0,0.092,ND
2016/11/29,10:50,1.1,0.086,ND
2016/11/29,11:00,1.0,0.090,ND
2016/11/29,11:10,1.1,0.084,ND
2016/11/29,11:20,1.1,0.084,ND
2016/11/29,11:30,0.91,0.11,ND
2016/11/29,11:40,0.92,0.10,ND
2016/11/29,11:50,0.90,0.10,ND
2016/11/29,12:00,0.88,0.10,ND
2016/11/29,12:10,0.84,0.098,ND
2016/11/29,12:20,0.81,0.092,9.7
2016/11/29,12:30,0.80,0.076,8.8
2016/11/29,12:40,0.91,0.063,8.8
2016/11/29,12:50,0.75,0.091,ND
2016/11/29,13:00,0.72,0.089,ND
2016/11/29,13:10,0.72,0.089,ND
2016/11/29,13:20,0.69,0.10,ND
2016/11/29,13:30,0.67,0.12,ND
2016/11/29,13:40,0.68,0.11,ND
2016/11/29,13:50,0.67,0.11,ND
2016/11/29,14:00,0.85,0.064,ND
2016/11/29,14:10,0.85,0.069,ND
2016/11/29,14:20,0.87,0.063,ND
2016/11/29,14:30,0.89,0.052,ND
2016/11/29,14:40,0.75,0.076,ND
2016/11/29,14:50,0.76,0.082,ND
2016/11/29,15:00,0.71,0.098,ND
2016/11/29,15:10,0.70,0.095,ND
2016/11/29,15:20,0.70,0.091,ND
2016/11/29,15:30,0.67,0.085,ND
2016/11/29,15:40,0.63,0.096,ND
2016/11/29,15:50,0.61,0.095,ND
2016/11/29,16:00,0.64,0.10,ND
2016/11/29,16:10,0.67,0.099,ND
2016/11/29,16:20,0.84,0.078,ND
2016/11/29,16:30,0.89,0.075,ND
2016/11/29,16:40,0.92,0.075,ND
2016/11/29,16:50,0.94,0.076,ND
2016/11/29,17:00,0.95,0.075,ND
2016/11/29,17:10,0.99,0.069,ND
2016/11/29,17:20,0.99,0.067,ND
2016/11/29,17:30,0.99,0.081,ND
2016/11/29,17:40,1.0,0.083,ND
2016/11/29,17:50,0.86,0.12,ND
2016/11/29,18:00,0.86,0.12,ND
2016/11/29,18:10,0.98,0.10,ND
2016/11/29,18:20,0.98,0.096,ND
2016/11/29,18:30,0.84,0.13,ND
2016/11/29,18:40,0.87,0.12,ND
2016/11/29,18:50,0.91,0.10,ND
2016/11/29,19:00,0.91,0.11,ND
2016/11/29,19:10,0.91,0.11,ND
2016/11/29,19:20,0.90,0.12,ND
2016/11/29,19:30,0.91,0.11,ND
2016/11/29,19:40,1.1,0.090,ND
2016/11/29,19:50,1.0,0.090,ND
2016/11/29,20:00,1.0,0.086,ND
2016/11/29,20:10,1.1,0.076,ND
2016/11/29,20:20,1.1,0.061,ND
2016/11/29,20:30,1.1,0.068,ND
2016/11/29,20:40,1.1,0.071,ND
2016/11/29,20:50,1.1,0.072,ND
2016/11/29,21:00,1.1,0.082,ND
2016/11/29,21:10,1.1,0.090,ND
2016/11/29,21:20,1.1,0.095,ND
2016/11/29,21:30,1.1,0.090,ND
2016/11/29,21:40,1.1,0.087,ND
2016/11/29,21:50,1.1,0.10,ND
2016/11/29,22:00,1.1,0.093,ND
2016/11/29,22:10,0.94,0.12,ND
2016/11/29,22:20,0.91,0.12,ND
2016/11/29,22:30,0.90,0.13,ND
2016/11/29,22:40,0.89,0.13,ND
2016/11/29,22:50,0.91,0.12,ND
2016/11/29,23:00,1.1,0.099,ND
2016/11/29,23:10,1.0,0.11,ND
2016/11/29,23:20,1.1,0.098,ND
2016/11/29,23:30,1.1,0.099,ND
2016/11/29,23:40,1.0,0.095,ND
2016/11/29,23:50,1.0,0.097,ND
